FDX5277 VIDP-OMDB

Flight info

Callsign FDX5277
Flight time 2h 56m
Altitude 32000
Route SURAM7C SURAM G333 MERUN G452 RK G214 BIVIN R462 VUSET A454 PASOV B540 MIVEK P574 IMPED
Aircraft B77L/H-SDE1E2E3FGHIJ2J3J4J5M1RWXY/LB1D1

Departure

Time 2026-05-06 00:10
Airport Indira Gandhi International Airport (VIDP)

Arrival

Time 2026-05-06 03:07
Airport Dubai International Airport (OMDB)
Time Latitude Longitude Altitude Speed Heading
2026-05-05 23:45 28.55786 77.10111 750 ft 0 kts 194°
2026-05-05 23:57 28.55790 77.10112 750 ft 3 kts 194°
2026-05-05 23:57 28.55816 77.10119 755 ft 4 kts 194°
2026-05-05 23:58 28.55840 77.10126 755 ft 3 kts 193°
2026-05-05 23:58 28.55863 77.10127 750 ft 4 kts 147°
2026-05-05 23:58 28.55876 77.10105 754 ft 4 kts 103°
2026-05-05 23:58 28.55880 77.10087 754 ft 1 kts 104°
2026-05-05 23:59 28.55880 77.10085 752 ft 0 kts 104°
2026-05-06 00:01 28.55878 77.10095 750 ft 7 kts 105°
2026-05-06 00:01 28.55859 77.10178 754 ft 11 kts 104°
2026-05-06 00:01 28.55840 77.10265 750 ft 11 kts 103°
2026-05-06 00:02 28.55862 77.10343 750 ft 11 kts 30°
2026-05-06 00:02 28.55938 77.10367 750 ft 11 kts 14°
2026-05-06 00:02 28.56015 77.10389 751 ft 11 kts 14°
2026-05-06 00:02 28.56078 77.10434 755 ft 12 kts 76°
2026-05-06 00:03 28.56052 77.10578 755 ft 22 kts 105°
2026-05-06 00:03 28.56015 77.10747 755 ft 22 kts 104°
2026-05-06 00:03 28.55976 77.10915 754 ft 22 kts 105°
2026-05-06 00:03 28.55937 77.11083 754 ft 22 kts 104°
2026-05-06 00:04 28.55899 77.11252 752 ft 22 kts 104°
2026-05-06 00:04 28.55861 77.11420 750 ft 22 kts 104°
2026-05-06 00:04 28.55822 77.11588 751 ft 22 kts 105°
2026-05-06 00:04 28.55780 77.11755 753 ft 22 kts 105°
2026-05-06 00:05 28.55674 77.11899 753 ft 13 kts 249°
2026-05-06 00:05 28.55694 77.11756 753 ft 22 kts 284°
2026-05-06 00:05 28.55731 77.11590 750 ft 22 kts 284°
2026-05-06 00:06 28.55757 77.11443 755 ft 14 kts 262°
2026-05-06 00:06 28.55659 77.11387 752 ft 22 kts 195°
2026-05-06 00:06 28.55512 77.11341 753 ft 22 kts 196°
2026-05-06 00:06 28.55364 77.11294 754 ft 22 kts 195°
2026-05-06 00:07 28.55218 77.11248 754 ft 22 kts 195°
2026-05-06 00:07 28.55068 77.11201 751 ft 22 kts 195°
2026-05-06 00:07 28.54920 77.11155 755 ft 22 kts 195°
2026-05-06 00:07 28.54772 77.11108 755 ft 22 kts 195°
2026-05-06 00:08 28.54624 77.11061 752 ft 22 kts 195°
2026-05-06 00:08 28.54479 77.11016 753 ft 18 kts 195°
2026-05-06 00:08 28.54374 77.11021 752 ft 16 kts 131°
2026-05-06 00:08 28.54341 77.11140 752 ft 16 kts 108°
2026-05-06 00:09 28.54258 77.11188 753 ft 15 kts 190°
2026-05-06 00:09 28.54152 77.11168 755 ft 15 kts 192°
2026-05-06 00:09 28.54093 77.11120 754 ft 9 kts 271°
2026-05-06 00:09 28.54126 77.10952 753 ft 43 kts 283°
2026-05-06 00:10 28.54251 77.10373 753 ft 108 kts 284°
2026-05-06 00:10 28.54479 77.09316 751 ft 162 kts 284°
2026-05-06 00:10 28.54783 77.07944 933 ft 185 kts 285°
2026-05-06 00:10 28.55109 77.06518 1432 ft 188 kts 285°
2026-05-06 00:11 28.55428 77.05071 1972 ft 188 kts 279°
2026-05-06 00:11 28.55299 77.03605 2350 ft 194 kts 252°
2026-05-06 00:11 28.54839 77.02096 2725 ft 207 kts 252°
2026-05-06 00:11 28.54397 77.00481 2930 ft 228 kts 253°
2026-05-06 00:12 28.53927 76.98651 3111 ft 253 kts 254°
2026-05-06 00:12 28.53436 76.96668 3587 ft 266 kts 255°
2026-05-06 00:12 28.52933 76.94581 4017 ft 273 kts 255°
2026-05-06 00:12 28.52603 76.93193 3990 ft 276 kts 255°
2026-05-06 00:13 28.52106 76.91092 4008 ft 274 kts 256°
2026-05-06 00:13 28.51615 76.89013 3993 ft 271 kts 256°
2026-05-06 00:13 28.51253 76.86935 3977 ft 266 kts 272°
2026-05-06 00:13 28.51608 76.84887 4013 ft 267 kts 287°
2026-05-06 00:14 28.52101 76.82812 4000 ft 275 kts 284°
2026-05-06 00:14 28.52564 76.80704 3989 ft 274 kts 284°
2026-05-06 00:14 28.53019 76.78614 3986 ft 271 kts 284°
2026-05-06 00:14 28.53471 76.76540 3992 ft 269 kts 284°
2026-05-06 00:15 28.53918 76.74477 3986 ft 268 kts 284°
2026-05-06 00:15 28.54364 76.72426 3982 ft 267 kts 284°
2026-05-06 00:15 28.54819 76.70382 4033 ft 267 kts 285°
2026-05-06 00:15 28.55320 76.68345 4611 ft 269 kts 286°
2026-05-06 00:16 28.55838 76.66282 5350 ft 273 kts 286°
2026-05-06 00:16 28.56359 76.64202 6136 ft 274 kts 287°
2026-05-06 00:16 28.56881 76.62116 6895 ft 275 kts 287°
2026-05-06 00:16 28.57407 76.60011 7609 ft 278 kts 287°
2026-05-06 00:17 28.57936 76.57884 8303 ft 281 kts 287°
2026-05-06 00:17 28.58469 76.55741 8984 ft 283 kts 287°
2026-05-06 00:17 28.59005 76.53577 9681 ft 285 kts 287°
2026-05-06 00:17 28.59546 76.51396 10303 ft 290 kts 287°
2026-05-06 00:18 28.60106 76.49137 10526 ft 312 kts 287°
2026-05-06 00:18 28.60715 76.46680 10723 ft 334 kts 287°
2026-05-06 00:18 28.61364 76.44055 10904 ft 355 kts 287°
2026-05-06 00:18 28.62043 76.41303 11438 ft 366 kts 287°
2026-05-06 00:19 28.62734 76.38491 12175 ft 371 kts 287°
2026-05-06 00:19 28.63429 76.35660 13055 ft 373 kts 287°
2026-05-06 00:19 28.64128 76.32810 13891 ft 375 kts 287°
2026-05-06 00:19 28.64833 76.29938 14653 ft 379 kts 287°
2026-05-06 00:20 28.65546 76.27032 15393 ft 383 kts 287°
2026-05-06 00:20 28.66266 76.24094 16145 ft 387 kts 287°
2026-05-06 00:20 28.66992 76.21128 16856 ft 391 kts 287°
2026-05-06 00:20 28.67724 76.18132 17565 ft 394 kts 287°
2026-05-06 00:21 28.68462 76.15109 18247 ft 398 kts 287°
2026-05-06 00:21 28.69208 76.12057 18904 ft 402 kts 287°
2026-05-06 00:21 28.69959 76.08975 19545 ft 406 kts 287°
2026-05-06 00:21 28.70718 76.05861 20143 ft 410 kts 287°
2026-05-06 00:22 28.71483 76.02714 20736 ft 414 kts 287°
2026-05-06 00:22 28.72254 75.99539 21326 ft 417 kts 287°
2026-05-06 00:22 28.73030 75.96338 21913 ft 421 kts 287°
2026-05-06 00:22 28.73812 75.93115 22496 ft 424 kts 287°
2026-05-06 00:23 28.74594 75.89864 23042 ft 427 kts 285°
2026-05-06 00:23 28.75011 75.86500 23501 ft 434 kts 270°
2026-05-06 00:23 28.74712 75.83076 23865 ft 438 kts 265°
2026-05-06 00:23 28.74343 75.79608 24277 ft 443 kts 265°
2026-05-06 00:24 28.73994 75.76112 24818 ft 445 kts 266°
2026-05-06 00:24 28.73662 75.72607 25399 ft 445 kts 266°
2026-05-06 00:24 28.73341 75.69091 25923 ft 447 kts 266°
2026-05-06 00:24 28.73024 75.65555 26376 ft 450 kts 266°
2026-05-06 00:25 28.72710 75.61993 26819 ft 453 kts 266°
2026-05-06 00:25 28.72399 75.58458 27269 ft 456 kts 266°
2026-05-06 00:25 28.72082 75.54859 27728 ft 457 kts 266°
2026-05-06 00:25 28.71762 75.51250 28167 ft 459 kts 266°
2026-05-06 00:26 28.71441 75.47624 28589 ft 461 kts 267°
2026-05-06 00:26 28.71116 75.43982 28979 ft 463 kts 267°
2026-05-06 00:26 28.70787 75.40321 29312 ft 466 kts 267°
2026-05-06 00:26 28.70456 75.36644 29693 ft 467 kts 267°
2026-05-06 00:27 28.70124 75.32972 30203 ft 465 kts 267°
2026-05-06 00:27 28.69794 75.29325 30765 ft 461 kts 267°
2026-05-06 00:27 28.69464 75.25702 31276 ft 459 kts 267°
2026-05-06 00:27 28.69136 75.22099 31766 ft 456 kts 267°
2026-05-06 00:28 28.68808 75.18498 31992 ft 458 kts 267°
2026-05-06 00:28 28.68479 75.14893 32316 ft 458 kts 267°
2026-05-06 00:28 28.68148 75.11292 32762 ft 456 kts 267°
2026-05-06 00:28 28.67819 75.07717 33248 ft 452 kts 267°
2026-05-06 00:29 28.67490 75.04172 33717 ft 449 kts 267°
2026-05-06 00:29 28.67163 75.00630 33904 ft 450 kts 267°
2026-05-06 00:29 28.66834 74.97085 33892 ft 451 kts 267°
2026-05-06 00:30 28.66175 74.90028 33880 ft 445 kts 267°
2026-05-06 00:30 28.65518 74.83030 33888 ft 444 kts 267°
2026-05-06 00:31 28.64860 74.76037 33886 ft 444 kts 267°
2026-05-06 00:31 28.64196 74.69045 33887 ft 444 kts 267°
2026-05-06 00:32 28.63530 74.62056 33895 ft 445 kts 267°
2026-05-06 00:32 28.62860 74.55053 33884 ft 445 kts 267°
2026-05-06 00:33 28.62184 74.48042 33879 ft 446 kts 267°
2026-05-06 00:33 28.61503 74.41027 33880 ft 446 kts 267°
2026-05-06 00:34 28.60818 74.34005 33876 ft 446 kts 267°
2026-05-06 00:34 28.60131 74.26982 33868 ft 446 kts 267°
2026-05-06 00:35 28.59440 74.19964 33872 ft 446 kts 267°
2026-05-06 00:35 28.58745 74.12948 33875 ft 446 kts 267°
2026-05-06 00:36 28.58046 74.05934 33870 ft 446 kts 267°
2026-05-06 00:36 28.57348 73.98967 33872 ft 446 kts 267°
2026-05-06 00:37 28.56644 73.91968 33882 ft 446 kts 267°
2026-05-06 00:37 28.55938 73.84968 33878 ft 445 kts 267°
2026-05-06 00:38 28.55256 73.77970 33864 ft 444 kts 270°
2026-05-06 00:38 28.54943 73.70967 33862 ft 443 kts 271°
2026-05-06 00:39 28.54670 73.63962 33855 ft 443 kts 271°
2026-05-06 00:39 28.54386 73.56973 33851 ft 443 kts 271°
2026-05-06 00:40 28.54087 73.49972 33853 ft 443 kts 271°
2026-05-06 00:40 28.53783 73.42989 33849 ft 443 kts 271°
2026-05-06 00:41 28.53476 73.35996 33856 ft 443 kts 271°
2026-05-06 00:41 28.53166 73.29050 33852 ft 443 kts 271°
2026-05-06 00:42 28.52851 73.22056 33851 ft 443 kts 271°
2026-05-06 00:42 28.52533 73.15066 33847 ft 443 kts 271°
2026-05-06 00:43 28.52210 73.08064 33843 ft 444 kts 271°
2026-05-06 00:43 28.51885 73.01062 33841 ft 443 kts 271°
2026-05-06 00:44 28.51555 72.94066 33836 ft 443 kts 271°
2026-05-06 00:44 28.51221 72.87073 33835 ft 443 kts 271°
2026-05-06 00:45 28.50886 72.80089 33832 ft 442 kts 271°
2026-05-06 00:45 28.50547 72.73108 33830 ft 442 kts 271°
2026-05-06 00:46 28.50203 72.66132 33831 ft 442 kts 271°
2026-05-06 00:46 28.49857 72.59164 33839 ft 441 kts 271°
2026-05-06 00:47 28.49509 72.52202 33827 ft 441 kts 271°
2026-05-06 00:47 28.49155 72.45247 33835 ft 440 kts 271°
2026-05-06 00:48 28.48800 72.38300 33834 ft 440 kts 271°
2026-05-06 00:48 28.48442 72.31355 33835 ft 440 kts 271°
2026-05-06 00:49 28.48080 72.24419 33835 ft 440 kts 271°
2026-05-06 00:49 28.47723 72.17476 33833 ft 440 kts 271°
2026-05-06 00:50 28.47368 72.10532 33834 ft 440 kts 271°
2026-05-06 00:50 28.47011 72.03583 33823 ft 440 kts 271°
2026-05-06 00:51 28.46649 71.96633 33825 ft 441 kts 271°
2026-05-06 00:51 28.46282 71.89683 33824 ft 441 kts 271°
2026-05-06 00:52 28.45913 71.82781 33823 ft 440 kts 271°
2026-05-06 00:52 28.45539 71.75835 33824 ft 440 kts 271°
2026-05-06 00:53 28.45163 71.68892 33821 ft 440 kts 271°
2026-05-06 00:53 28.44783 71.61959 33823 ft 440 kts 271°
2026-05-06 00:54 28.44399 71.55020 33825 ft 440 kts 271°
2026-05-06 00:54 28.44011 71.48084 33822 ft 440 kts 271°
2026-05-06 00:55 28.43620 71.41152 33823 ft 439 kts 271°
2026-05-06 00:55 28.43227 71.34222 33825 ft 439 kts 271°
2026-05-06 00:56 28.42830 71.27296 33824 ft 439 kts 271°
2026-05-06 00:56 28.42428 71.20375 33824 ft 439 kts 271°
2026-05-06 00:57 28.42025 71.13468 33824 ft 438 kts 271°
2026-05-06 00:57 28.41619 71.06560 33825 ft 438 kts 271°
2026-05-06 00:58 28.41208 70.99660 33824 ft 438 kts 271°
2026-05-06 00:58 28.40795 70.92765 33825 ft 437 kts 271°
2026-05-06 00:59 28.40379 70.85873 33824 ft 437 kts 271°
2026-05-06 00:59 28.39959 70.78984 33825 ft 437 kts 271°
2026-05-06 01:00 28.39536 70.72100 33825 ft 437 kts 271°
2026-05-06 01:00 28.39110 70.65220 33823 ft 437 kts 271°
2026-05-06 01:01 28.38753 70.59505 33825 ft 436 kts 271°
2026-05-06 01:01 28.38252 70.51529 33825 ft 435 kts 271°
2026-05-06 01:02 28.37817 70.44675 33831 ft 435 kts 271°
2026-05-06 01:02 28.37452 70.38942 33827 ft 435 kts 271°
2026-05-06 01:03 28.36948 70.32096 33820 ft 437 kts 266°
2026-05-06 01:03 28.35483 70.25336 33834 ft 444 kts 259°
2026-05-06 01:04 28.33140 70.18787 33827 ft 451 kts 251°
2026-05-06 01:04 28.30359 70.12394 33821 ft 452 kts 251°
2026-05-06 01:05 28.27588 70.06060 33832 ft 451 kts 251°
2026-05-06 01:05 28.24825 69.99682 33830 ft 450 kts 251°
2026-05-06 01:06 28.22075 69.93307 33834 ft 450 kts 251°
2026-05-06 01:06 28.19327 69.86941 33835 ft 449 kts 251°
2026-05-06 01:07 28.16581 69.80590 33848 ft 449 kts 251°
2026-05-06 01:07 28.13830 69.74241 33853 ft 449 kts 251°
2026-05-06 01:08 28.11072 69.67883 33853 ft 450 kts 251°
2026-05-06 01:08 28.08311 69.61530 33851 ft 450 kts 251°
2026-05-06 01:09 28.05544 69.55171 33853 ft 450 kts 251°
2026-05-06 01:09 28.02769 69.48808 33853 ft 451 kts 251°
2026-05-06 01:10 27.99993 69.42452 33850 ft 451 kts 251°
2026-05-06 01:10 27.97210 69.36086 33852 ft 452 kts 251°
2026-05-06 01:11 27.94421 69.29718 33852 ft 452 kts 251°
2026-05-06 01:11 27.91627 69.23347 33849 ft 453 kts 251°
2026-05-06 01:12 27.88815 69.16974 33854 ft 453 kts 251°
2026-05-06 01:12 27.85988 69.10599 33852 ft 454 kts 251°
2026-05-06 01:13 27.83154 69.04215 33850 ft 454 kts 251°
2026-05-06 01:13 27.80322 68.97837 33855 ft 455 kts 251°
2026-05-06 01:14 27.76060 68.88258 33865 ft 455 kts 251°
2026-05-06 01:14 27.73319 68.81827 33861 ft 451 kts 256°
2026-05-06 01:15 27.71444 68.75147 33863 ft 443 kts 263°
2026-05-06 01:15 27.70329 68.68391 33861 ft 441 kts 266°
2026-05-06 01:16 27.69236 68.61540 33862 ft 441 kts 265°
2026-05-06 01:16 27.68139 68.54768 33862 ft 442 kts 265°
2026-05-06 01:17 27.67022 68.47948 33862 ft 442 kts 265°
2026-05-06 01:17 27.65896 68.41128 33862 ft 442 kts 265°
2026-05-06 01:18 27.64767 68.34306 33861 ft 442 kts 265°
2026-05-06 01:18 27.63635 68.27486 33860 ft 442 kts 265°
2026-05-06 01:19 27.62500 68.20665 33861 ft 442 kts 265°
2026-05-06 01:19 27.61368 68.13890 33860 ft 442 kts 265°
2026-05-06 01:20 27.60222 68.07042 33861 ft 442 kts 265°
2026-05-06 01:20 27.59078 68.00234 33861 ft 442 kts 265°
2026-05-06 01:21 27.57931 67.93431 33859 ft 442 kts 265°
2026-05-06 01:21 27.56780 67.86628 33869 ft 442 kts 265°
2026-05-06 01:22 27.55626 67.79823 33871 ft 442 kts 265°
2026-05-06 01:22 27.54476 67.73060 33872 ft 442 kts 265°
2026-05-06 01:23 27.53314 67.66251 33871 ft 443 kts 265°
2026-05-06 01:23 27.52150 67.59449 33869 ft 443 kts 265°
2026-05-06 01:24 27.50980 67.52638 33869 ft 442 kts 265°
2026-05-06 01:24 27.49810 67.45842 33872 ft 443 kts 265°
2026-05-06 01:25 27.48635 67.39034 33868 ft 443 kts 265°
2026-05-06 01:25 27.47454 67.32226 33862 ft 443 kts 265°
2026-05-06 01:26 27.46274 67.25425 33872 ft 442 kts 264°
2026-05-06 01:26 27.45134 67.18620 33872 ft 441 kts 265°
2026-05-06 01:27 27.44107 67.11802 33884 ft 442 kts 266°
2026-05-06 01:27 27.43086 67.04978 33876 ft 441 kts 265°
2026-05-06 01:28 27.42052 66.98176 33880 ft 441 kts 265°
2026-05-06 01:28 27.41009 66.91375 33874 ft 440 kts 265°
2026-05-06 01:29 27.39961 66.84608 33892 ft 439 kts 265°
2026-05-06 01:29 27.38912 66.77840 33881 ft 439 kts 265°
2026-05-06 01:30 27.37866 66.71106 33883 ft 440 kts 265°
2026-05-06 01:30 27.36809 66.64328 33876 ft 440 kts 265°
2026-05-06 01:31 27.35751 66.57554 33873 ft 439 kts 265°
2026-05-06 01:31 27.34688 66.50785 33889 ft 440 kts 265°
2026-05-06 01:32 27.33619 66.44002 33874 ft 441 kts 265°
2026-05-06 01:32 27.32546 66.37210 33878 ft 441 kts 265°
2026-05-06 01:33 27.31469 66.30422 33877 ft 441 kts 265°
2026-05-06 01:33 27.30392 66.23645 33892 ft 440 kts 265°
2026-05-06 01:34 27.29313 66.16874 33880 ft 440 kts 265°
2026-05-06 01:34 27.28230 66.10099 33885 ft 440 kts 265°
2026-05-06 01:35 27.27143 66.03326 33851 ft 440 kts 265°
2026-05-06 01:35 27.26051 65.96556 33844 ft 440 kts 265°
2026-05-06 01:36 27.24960 65.89794 33848 ft 439 kts 264°
2026-05-06 01:36 27.23865 65.83043 33855 ft 439 kts 264°
2026-05-06 01:37 27.22770 65.76308 33867 ft 439 kts 264°
2026-05-06 01:37 27.21669 65.69556 33860 ft 439 kts 264°
2026-05-06 01:38 27.20564 65.62803 33861 ft 439 kts 264°
2026-05-06 01:38 27.19457 65.56063 33865 ft 439 kts 264°
2026-05-06 01:39 27.18351 65.49323 33873 ft 438 kts 264°
2026-05-06 01:39 27.17238 65.42580 33870 ft 440 kts 264°
2026-05-06 01:40 27.16117 65.35821 33870 ft 441 kts 264°
2026-05-06 01:40 27.15001 65.29103 33869 ft 441 kts 264°
2026-05-06 01:41 27.13873 65.22333 33869 ft 441 kts 264°
2026-05-06 01:41 27.12742 65.15561 33871 ft 441 kts 264°
2026-05-06 01:42 27.11729 65.09522 33869 ft 441 kts 264°
2026-05-06 01:42 27.10601 65.02811 33869 ft 440 kts 264°
2026-05-06 01:43 27.09455 64.96018 33871 ft 440 kts 264°
2026-05-06 01:43 27.08316 64.89281 33866 ft 439 kts 264°
2026-05-06 01:44 27.07175 64.82552 33867 ft 439 kts 264°
2026-05-06 01:44 27.06037 64.75865 33870 ft 440 kts 264°
2026-05-06 01:45 27.04885 64.69113 33874 ft 441 kts 264°
2026-05-06 01:45 27.03729 64.62360 33882 ft 441 kts 264°
2026-05-06 01:46 27.02568 64.55597 33880 ft 442 kts 264°
2026-05-06 01:46 27.01404 64.48831 33879 ft 442 kts 263°
2026-05-06 01:47 27.00235 64.42066 33880 ft 442 kts 263°
2026-05-06 01:47 26.99063 64.35298 33878 ft 442 kts 263°
2026-05-06 01:48 26.97888 64.28534 33880 ft 442 kts 263°
2026-05-06 01:48 26.96719 64.21821 33881 ft 442 kts 263°
2026-05-06 01:49 26.94945 64.15198 33880 ft 451 kts 250°
2026-05-06 01:49 26.91752 64.09086 33872 ft 462 kts 238°
2026-05-06 01:50 26.87496 64.03620 33875 ft 466 kts 235°
2026-05-06 01:50 26.83147 63.98241 33898 ft 466 kts 234°
2026-05-06 01:51 26.78821 63.92837 33889 ft 465 kts 235°
2026-05-06 01:51 26.74527 63.87424 33881 ft 465 kts 235°
2026-05-06 01:52 26.70236 63.82006 33889 ft 465 kts 235°
2026-05-06 01:52 26.65951 63.76602 33895 ft 465 kts 235°
2026-05-06 01:53 26.61655 63.71193 33896 ft 465 kts 234°
2026-05-06 01:53 26.57357 63.65790 33886 ft 465 kts 234°
2026-05-06 01:54 26.53058 63.60393 33888 ft 465 kts 234°
2026-05-06 01:54 26.48754 63.54996 33882 ft 465 kts 234°
2026-05-06 01:55 26.44448 63.49602 33884 ft 465 kts 234°
2026-05-06 01:55 26.40136 63.44207 33898 ft 466 kts 234°
2026-05-06 01:56 26.35819 63.38813 33897 ft 466 kts 234°
2026-05-06 01:56 26.31497 63.33420 33882 ft 467 kts 234°
2026-05-06 01:57 26.27170 63.28027 33886 ft 467 kts 234°
2026-05-06 01:57 26.22869 63.22673 33892 ft 467 kts 234°
2026-05-06 01:58 26.18512 63.17254 33890 ft 466 kts 234°
2026-05-06 01:58 26.14189 63.11884 33891 ft 466 kts 234°
2026-05-06 01:59 26.09890 63.06551 33900 ft 466 kts 234°
2026-05-06 01:59 26.05564 63.01189 33901 ft 466 kts 234°
2026-05-06 02:00 26.01236 62.95831 33901 ft 465 kts 234°
2026-05-06 02:00 25.96909 62.90476 33896 ft 466 kts 233°
2026-05-06 02:01 25.92576 62.85106 33903 ft 467 kts 233°
2026-05-06 02:01 25.88226 62.79720 33902 ft 469 kts 233°
2026-05-06 02:02 25.83861 62.74324 33901 ft 470 kts 233°
2026-05-06 02:02 25.79494 62.68932 33898 ft 470 kts 233°
2026-05-06 02:03 25.75117 62.63534 33899 ft 470 kts 233°
2026-05-06 02:03 25.70735 62.58136 33895 ft 471 kts 233°
2026-05-06 02:04 25.66353 62.52745 33899 ft 470 kts 233°
2026-05-06 02:04 25.61974 62.47364 33897 ft 470 kts 233°
2026-05-06 02:05 25.57589 62.41982 33906 ft 470 kts 233°
2026-05-06 02:05 25.53205 62.36607 33884 ft 470 kts 233°
2026-05-06 02:06 25.48829 62.31246 33898 ft 469 kts 233°
2026-05-06 02:06 25.44458 62.25899 33917 ft 468 kts 233°
2026-05-06 02:07 25.40090 62.20562 33914 ft 468 kts 233°
2026-05-06 02:07 25.35716 62.15225 33918 ft 469 kts 233°
2026-05-06 02:08 25.31332 62.09880 33917 ft 470 kts 232°
2026-05-06 02:08 25.26941 62.04533 33915 ft 471 kts 232°
2026-05-06 02:09 25.22537 61.99177 33911 ft 471 kts 232°
2026-05-06 02:09 25.18155 61.93853 33910 ft 472 kts 232°
2026-05-06 02:10 25.13739 61.88493 33905 ft 472 kts 232°
2026-05-06 02:10 25.09329 61.83122 33903 ft 471 kts 234°
2026-05-06 02:11 25.05611 61.77242 33911 ft 465 kts 243°
2026-05-06 02:11 25.02785 61.70861 33907 ft 463 kts 249°
2026-05-06 02:12 25.00202 61.64364 33906 ft 463 kts 249°
2026-05-06 02:12 24.97585 61.57875 33905 ft 463 kts 249°
2026-05-06 02:13 24.94946 61.51389 33910 ft 464 kts 249°
2026-05-06 02:13 24.92306 61.44897 33908 ft 464 kts 249°
2026-05-06 02:14 24.89698 61.38385 33908 ft 465 kts 249°
2026-05-06 02:14 24.87097 61.31870 33901 ft 465 kts 249°
2026-05-06 02:15 24.84483 61.25350 33898 ft 465 kts 249°
2026-05-06 02:15 24.81865 61.18833 33900 ft 465 kts 249°
2026-05-06 02:16 24.79243 61.12319 33897 ft 465 kts 249°
2026-05-06 02:16 24.76636 61.05851 33898 ft 465 kts 249°
2026-05-06 02:17 24.74009 60.99342 33894 ft 465 kts 249°
2026-05-06 02:17 24.71380 60.92835 33885 ft 465 kts 249°
2026-05-06 02:18 24.68679 60.86358 33885 ft 466 kts 248°
2026-05-06 02:18 24.65893 60.79930 33907 ft 466 kts 247°
2026-05-06 02:19 24.63115 60.73497 33913 ft 466 kts 247°
2026-05-06 02:19 24.60347 60.67057 33914 ft 466 kts 247°
2026-05-06 02:20 24.56170 60.57382 33875 ft 468 kts 247°
2026-05-06 02:21 24.53362 60.50932 33868 ft 468 kts 247°
2026-05-06 02:21 24.51025 60.45566 33871 ft 468 kts 247°
2026-05-06 02:22 24.48215 60.39114 33859 ft 469 kts 247°
2026-05-06 02:22 24.45393 60.32644 33852 ft 470 kts 247°
2026-05-06 02:23 24.42571 60.26184 33853 ft 470 kts 247°
2026-05-06 02:23 24.39741 60.19710 33851 ft 471 kts 246°
2026-05-06 02:24 24.36908 60.13243 33848 ft 471 kts 246°
2026-05-06 02:24 24.34065 60.06763 33840 ft 471 kts 246°
2026-05-06 02:25 24.31238 60.00330 33843 ft 471 kts 246°
2026-05-06 02:25 24.28389 59.93853 33841 ft 472 kts 246°
2026-05-06 02:26 24.25540 59.87386 33837 ft 471 kts 246°
2026-05-06 02:26 24.22685 59.80912 33834 ft 472 kts 246°
2026-05-06 02:27 24.19829 59.74444 33834 ft 472 kts 246°
2026-05-06 02:27 24.16970 59.67981 33829 ft 471 kts 246°
2026-05-06 02:28 24.14113 59.61528 33822 ft 471 kts 246°
2026-05-06 02:28 24.11250 59.55070 33824 ft 471 kts 246°
2026-05-06 02:29 24.08386 59.48622 33823 ft 471 kts 246°
2026-05-06 02:29 24.05512 59.42183 33824 ft 471 kts 246°
2026-05-06 02:30 24.02641 59.35754 33817 ft 471 kts 246°
2026-05-06 02:30 23.99767 59.29318 33814 ft 470 kts 246°
2026-05-06 02:31 23.96918 59.22923 33810 ft 471 kts 246°
2026-05-06 02:31 23.94326 59.16384 33803 ft 467 kts 259°
2026-05-06 02:31 23.93957 59.12882 33828 ft 465 kts 270°
2026-05-06 02:32 23.94205 59.09357 33824 ft 465 kts 281°
2026-05-06 02:32 23.96225 59.02649 33817 ft 467 kts 290°
2026-05-06 02:33 23.98476 58.95959 33814 ft 470 kts 289°
2026-05-06 02:33 23.99223 58.93690 33812 ft 471 kts 289°
2026-05-06 02:34 24.02844 58.82437 33810 ft 471 kts 288°
2026-05-06 02:34 24.05002 58.75675 33802 ft 470 kts 288°
2026-05-06 02:35 24.07150 58.68939 33802 ft 467 kts 288°
2026-05-06 02:35 24.09286 58.62237 33802 ft 466 kts 288°
2026-05-06 02:36 24.11410 58.55556 33805 ft 464 kts 288°
2026-05-06 02:36 24.13525 58.48875 33806 ft 465 kts 288°
2026-05-06 02:37 24.15638 58.42185 33806 ft 465 kts 288°
2026-05-06 02:37 24.17752 58.35482 33806 ft 466 kts 288°
2026-05-06 02:38 24.19867 58.28769 33805 ft 467 kts 288°
2026-05-06 02:38 24.21975 58.22065 33808 ft 469 kts 288°
2026-05-06 02:39 24.24096 58.15306 33806 ft 470 kts 288°
2026-05-06 02:39 24.26232 58.08490 33806 ft 470 kts 288°
2026-05-06 02:40 24.28337 58.01760 33806 ft 470 kts 288°
2026-05-06 02:40 24.30454 57.94976 33814 ft 470 kts 288°
2026-05-06 02:41 24.32564 57.88207 33814 ft 470 kts 288°
2026-05-06 02:41 24.34674 57.81426 33815 ft 469 kts 288°
2026-05-06 02:42 24.36775 57.74659 33814 ft 469 kts 288°
2026-05-06 02:42 24.38874 57.67888 33814 ft 468 kts 288°
2026-05-06 02:43 24.40967 57.61128 33814 ft 468 kts 288°
2026-05-06 02:43 24.43053 57.54375 33814 ft 467 kts 288°
2026-05-06 02:44 24.45134 57.47632 33816 ft 466 kts 288°
2026-05-06 02:44 24.47216 57.40887 33449 ft 471 kts 287°
2026-05-06 02:44 24.48278 57.37440 32594 ft 478 kts 288°
2026-05-06 02:45 24.49340 57.33991 31876 ft 475 kts 288°
2026-05-06 02:45 24.50391 57.30577 31254 ft 469 kts 288°
2026-05-06 02:45 24.51430 57.27198 30637 ft 465 kts 288°
2026-05-06 02:45 24.52457 57.23852 30046 ft 460 kts 288°
2026-05-06 02:46 24.53472 57.20545 29452 ft 456 kts 288°
2026-05-06 02:46 24.54479 57.17260 28863 ft 452 kts 288°
2026-05-06 02:46 24.55476 57.14005 28287 ft 448 kts 288°
2026-05-06 02:46 24.56463 57.10778 27703 ft 444 kts 288°
2026-05-06 02:47 24.57441 57.07578 27148 ft 440 kts 288°
2026-05-06 02:47 24.58408 57.04411 26610 ft 436 kts 288°
2026-05-06 02:47 24.59366 57.01269 26065 ft 432 kts 288°
2026-05-06 02:47 24.60316 56.98154 25537 ft 428 kts 288°
2026-05-06 02:48 24.61257 56.95067 25023 ft 424 kts 288°
2026-05-06 02:48 24.62189 56.92007 24515 ft 421 kts 288°
2026-05-06 02:48 24.63113 56.88971 24015 ft 417 kts 289°
2026-05-06 02:48 24.64059 56.85970 23517 ft 414 kts 291°
2026-05-06 02:49 24.65224 56.83092 23048 ft 410 kts 297°
2026-05-06 02:49 24.66644 56.80387 22572 ft 407 kts 301°
2026-05-06 02:49 24.68099 56.77784 22111 ft 404 kts 302°
2026-05-06 02:49 24.69563 56.75162 21658 ft 401 kts 302°
2026-05-06 02:50 24.71011 56.72556 21203 ft 398 kts 302°
2026-05-06 02:50 24.72444 56.69966 20753 ft 395 kts 302°
2026-05-06 02:50 24.73863 56.67392 20305 ft 392 kts 302°
2026-05-06 02:50 24.75267 56.64838 19856 ft 389 kts 302°
2026-05-06 02:51 24.76661 56.62299 19413 ft 386 kts 302°
2026-05-06 02:51 24.78044 56.59779 18964 ft 383 kts 302°
2026-05-06 02:51 24.79416 56.57275 18526 ft 380 kts 302°
2026-05-06 02:51 24.80779 56.54789 18088 ft 378 kts 302°
2026-05-06 02:52 24.82136 56.52312 17639 ft 377 kts 302°
2026-05-06 02:52 24.83491 56.49838 17204 ft 377 kts 302°
2026-05-06 02:52 24.84844 56.47365 16762 ft 378 kts 302°
2026-05-06 02:52 24.86202 56.44884 16311 ft 378 kts 302°
2026-05-06 02:53 24.87486 56.42369 15847 ft 377 kts 294°
2026-05-06 02:53 24.88265 56.39606 15392 ft 380 kts 281°
2026-05-06 02:53 24.88495 56.36703 14922 ft 383 kts 269°
2026-05-06 02:53 24.88303 56.33772 14491 ft 384 kts 266°
2026-05-06 02:54 24.88105 56.30851 14135 ft 383 kts 266°
2026-05-06 02:54 24.87990 56.27932 13677 ft 381 kts 272°
2026-05-06 02:54 24.88382 56.25050 13217 ft 382 kts 286°
2026-05-06 02:54 24.89297 56.22328 12990 ft 375 kts 297°
2026-05-06 02:55 24.90557 56.19848 12834 ft 368 kts 301°
2026-05-06 02:55 24.91819 56.17453 12653 ft 352 kts 301°
2026-05-06 02:55 24.92995 56.15202 12492 ft 327 kts 300°
2026-05-06 02:55 24.94093 56.13077 12384 ft 313 kts 300°
2026-05-06 02:56 24.95154 56.11009 12274 ft 309 kts 300°
2026-05-06 02:56 24.96198 56.08964 12156 ft 304 kts 300°
2026-05-06 02:56 24.97222 56.06947 12004 ft 300 kts 298°
2026-05-06 02:56 24.98063 56.04822 11654 ft 305 kts 290°
2026-05-06 02:57 24.98726 56.02597 11413 ft 305 kts 287°
2026-05-06 02:57 24.99352 56.00358 11089 ft 306 kts 287°
2026-05-06 02:57 24.99971 55.98154 10700 ft 297 kts 287°
2026-05-06 02:57 25.00586 55.96013 10274 ft 287 kts 287°
2026-05-06 02:58 25.01194 55.93930 9932 ft 284 kts 287°
2026-05-06 02:58 25.01800 55.91873 9591 ft 280 kts 287°
2026-05-06 02:58 25.02398 55.89848 9257 ft 276 kts 287°
2026-05-06 02:58 25.02989 55.87848 8935 ft 272 kts 287°
2026-05-06 02:59 25.03575 55.85881 8615 ft 268 kts 286°
2026-05-06 02:59 25.04155 55.83933 8312 ft 267 kts 286°
2026-05-06 02:59 25.04730 55.82003 8009 ft 269 kts 287°
2026-05-06 02:59 25.05316 55.80031 7721 ft 264 kts 287°
2026-05-06 03:00 25.05885 55.78120 7363 ft 262 kts 287°
2026-05-06 03:00 25.06451 55.76216 6964 ft 261 kts 287°
2026-05-06 03:00 25.07008 55.74343 6558 ft 260 kts 287°
2026-05-06 03:00 25.07558 55.72494 6521 ft 249 kts 287°
2026-05-06 03:01 25.08110 55.70634 6191 ft 260 kts 287°
2026-05-06 03:01 25.08677 55.68723 5902 ft 264 kts 287°
2026-05-06 03:01 25.09249 55.66799 5576 ft 263 kts 287°
2026-05-06 03:01 25.09812 55.64898 5247 ft 259 kts 287°
2026-05-06 03:02 25.10432 55.63061 4928 ft 251 kts 298°
2026-05-06 03:02 25.11368 55.61471 4658 ft 244 kts 305°
2026-05-06 03:02 25.12342 55.59972 4351 ft 237 kts 304°
2026-05-06 03:02 25.13299 55.58495 4089 ft 236 kts 306°
2026-05-06 03:03 25.14252 55.57024 3821 ft 236 kts 303°
2026-05-06 03:03 25.15134 55.55512 3616 ft 232 kts 301°
2026-05-06 03:03 25.15975 55.54002 3304 ft 228 kts 301°
2026-05-06 03:03 25.16792 55.52519 3014 ft 224 kts 301°
2026-05-06 03:04 25.17595 55.51071 2725 ft 218 kts 301°
2026-05-06 03:04 25.18369 55.49676 2419 ft 206 kts 301°
2026-05-06 03:04 25.19086 55.48380 2195 ft 188 kts 301°
2026-05-06 03:04 25.19742 55.47190 1943 ft 177 kts 301°
2026-05-06 03:05 25.20366 55.46067 1709 ft 169 kts 301°
2026-05-06 03:05 25.20984 55.44950 1505 ft 172 kts 301°
2026-05-06 03:05 25.21617 55.43815 1250 ft 173 kts 300°
2026-05-06 03:05 25.22243 55.42682 1037 ft 173 kts 300°
2026-05-06 03:06 25.22867 55.41546 785 ft 173 kts 301°
2026-05-06 03:06 25.23487 55.40427 568 ft 170 kts 301°
2026-05-06 03:06 25.24096 55.39329 329 ft 170 kts 301°
2026-05-06 03:06 25.24698 55.38228 108 ft 168 kts 300°
2026-05-06 03:07 25.25103 55.37497 34 ft 162 kts 301°
2026-05-06 03:07 25.25692 55.36424 26 ft 114 kts 301°
2026-05-06 03:07 25.25992 55.35888 27 ft 49 kts 301°